This is the latest recevied weather packets stored in our database for station/object KB1JLI. If no packets are shown the sender has not sent any weather packets the latest 10 day(s).
| Time | Temp. | Humidity | Pressure | Rain* | Wind** | Luminosity | Snow |
|---|---|---|---|---|---|---|---|
| 1777816774 | 7.78° C | 79% | 1006 hPa | 0 mm | - | 173 W/m² | - |
| 1777816472 | 7.78° C | 79% | 1006 hPa | 0 mm | - | 140 W/m² | - |
| 1777816169 | 7.78° C | 79% | 1006 hPa | 0 mm | - | 110 W/m² | - |
| 1777815867 | 7.78° C | 80% | 1006.1 hPa | 0 mm | - | 63 W/m² | - |
| 1777815564 | 7.22° C | 81% | 1006.3 hPa | 0 mm | - | 65 W/m² | - |
| 1777815262 | 7.22° C | 81% | 1006.2 hPa | 0 mm | - | 78 W/m² | - |
| 1777814957 | 7.22° C | 82% | 1006.2 hPa | 0 mm | - | 66 W/m² | - |
| 1777814654 | 7.22° C | 82% | 1006.1 hPa | 0 mm | - | 34 W/m² | - |
| 1777814350 | 7.22° C | 82% | 1006.4 hPa | 0 mm | - | 51 W/m² | - |
| 1777814048 | 7.22° C | 82% | 1006.4 hPa | 0 mm | - | 53 W/m² | - |
| 1777813745 | 7.22° C | 82% | 1006.4 hPa | 0 mm | - | 77 W/m² | - |
| 1777813442 | 7.78° C | 82% | 1006.3 hPa | 0 mm | - | 85 W/m² | - |
| 1777813139 | 7.78° C | 82% | 1006.4 hPa | 0 mm | - | 115 W/m² | - |
| 1777812837 | 7.22° C | 82% | 1006.5 hPa | 0 mm | - | 163 W/m² | - |
| 1777812533 | 7.22° C | 82% | 1006.6 hPa | 0 mm | - | 157 W/m² | - |
| 1777812231 | 7.22° C | 83% | 1006.4 hPa | 0 mm | - | 159 W/m² | - |
| 1777811929 | 7.22° C | 84% | 1006.6 hPa | 0 mm | - | 133 W/m² | - |
| 1777811628 | 7.22° C | 84% | 1006.6 hPa | 0 mm | - | 113 W/m² | - |
| 1777811328 | 6.67° C | 84% | 1007 hPa | 0 mm | - | 109 W/m² | - |
| 1777811026 | 6.67° C | 85% | 1006.7 hPa | 0 mm | - | 189 W/m² | - |
| 1777810723 | 6.67° C | 86% | 1006.5 hPa | 0 mm | - | 183 W/m² | - |
| 1777810419 | 6.67° C | 87% | 1006.5 hPa | 0 mm | - | 93 W/m² | - |
| 1777810115 | 6.11° C | 87% | 1006.8 hPa | 0 mm | - | 100 W/m² | - |
| 1777809812 | 6.11° C | 87% | 1006.8 hPa | 0 mm | - | 51 W/m² | - |
| 1777809510 | 6.11° C | 87% | 1006.8 hPa | 0 mm | - | 57 W/m² | - |
* Rain latest hour (hover to see other rain measurements)
** Current wind speed in m/s (hover to see current wind gust speed)